Regional Weather Roundup
Issued by NWS

Home | Current Version | Previous Version | Graphics & Text | Print | Product List | Glossary On
Versions: 1 2 3 4 5 6 7 8 9 10 11 12 13 14 15 16 17 18 19 20 21 22 23 24 25 26 27 28 29 30 31 32 33 34 35 36 37 38 39 40 41 42 43 44 45 46 47 48 49 50
000
ASUS43 KOAX 220302
RWRNE

WEATHER ROUNDUP FOR NEBRASKA
NATIONAL WEATHER SERVICE OMAHA NE
900 PM CST SUN JAN 21 2018

NOTES: SATELLITE DATA IS BEING USED TO AUGMENT CLOUD COVER ABOVE
       12000 FEET.
       "FAIR" INDICATES FEW OR NO CLOUDS BELOW 12,000 FEET WITH NO
       SIGNIFICANT WEATHER AND/OR OBSTRUCTIONS TO VISIBILITY.


NEZ001>004-019>022-054>056-220400-
NEBRASKA PANHANDLE

CITY           SKY/WX    TMP DP  RH WIND       PRES   REMARKS
SCOTTSBLUFF    CLOUDY    28  23  81 NW17      29.96S WCI  16
ALLIANCE       CLOUDY    25  24  96 N17       29.92R WCI  12
CHADRON        CLOUDY    28  24  85 NW10      29.99F WCI  19
GORDON         FAIR      28  23  83 N14       29.93S WCI  17
KIMBALL        LGT SNOW  24  22  93 NW29G36   29.90S WCI   7
SIDNEY         LGT SNOW  25  23  92 N28G36    29.88F FOG     WCI   9
$$

NEZ057>060-069>072-079>082-220400-
SOUTHWEST NEBRASKA

CITY           SKY/WX    TMP DP  RH WIND       PRES   REMARKS
NORTH PLATTE   FOG       30  27  88 N24G32    29.74F VSB 1/2 WCI  16
IMPERIAL       CLOUDY    28  27  96 N31G44    29.76F FOG     WCI  12
LEXINGTON      LGT SNOW  33  31  93 N18G24    29.66F WCI  21
MCCOOK         SNOW      31  31 100 N26G36    29.67F VSB 1/2 WCI  17
OGALLALA         N/A     30  28  93 N26G32    29.81F WCI  15
$$

NEZ005>010-023>029-035>040-094-220400-
NORTH CENTRAL NEBRASKA

CITY           SKY/WX    TMP DP  RH WIND       PRES   REMARKS
VALENTINE      LGT SNOW  31  27  85 N23G31    29.90F VSB 1   WCI  18
AINSWORTH      LGT SNOW  30  30 100 N26G32    29.87F WCI  15
BROKEN BOW     LGT SNOW  32  29  88 N29G46    29.68F FOG     WCI  18
O`NEILL        LGT SNOW  32  32 100 N23G31    29.82S WCI  20
ORD            LGT SNOW  33  31  92 N23G37    29.70F FOG     WCI  21
THEDFORD       CLOUDY    30  29  96 N18G26    29.82F WCI  18
$$

NEZ041-046>049-061>064-073>077-083>087-220400-
SOUTH CENTRAL NEBRASKA

CITY           SKY/WX    TMP DP  RH WIND       PRES   REMARKS
GRAND ISLAND   LGT RAIN  33  33 100 NE26      29.66F WCI  20
AURORA         CLOUDY    34  34 100 NE25G31   29.64F WCI  21
HASTINGS       CLOUDY    33  32  96 NE14G28   29.64F FOG     WCI  23
HEBRON         FOG       37  37  99 NE8       29.62S VSB 3/4 WCI  31
HOLDREGE       MIX PCPN  32  32 100 NE21G28   29.62F WCI  20
KEARNEY        MIX PCPN  32  31  96 NE25G31   29.65F WCI  19
YORK           CLOUDY    36  36 100 NE22G28   29.66S FOG     WCI  24
$$

NEZ011>018-030>034-042>045-220400-
NORTHEAST NEBRASKA

CITY           SKY/WX    TMP DP  RH WIND       PRES   REMARKS
NORFOLK        CLOUDY    45  32  60 NE16G31   29.71F
ALBION         CLOUDY    34  32  93 NE21G30   29.71R WCI  22
BLAIR          DRZL/FOG  37  37  98 NE15      29.66S VSB 3/4 WCI  28
COLUMBUS       LGT RAIN  35  33  92 NE18      29.71R FOG     WCI  24
FREMONT        CLOUDY    37  37  99 NE9G18    29.70R FOG     WCI  30
TEKAMAH        CLOUDY    37  34  89 N16       29.70F FOG     WCI  28
WAYNE          CLOUDY    33  32  96 NE24G32   29.72F WCI  21
$$

NEZ050>053-065>068-078-088>093-220400-
SOUTHEAST NEBRASKA

CITY           SKY/WX    TMP DP  RH WIND       PRES   REMARKS
LINCOLN        CLOUDY    37  36  96 N12       29.68S WCI  29
OMAHA EPPLEY   LGT RAIN  38  36  92 N9        29.68F FOG     WCI  31
BEATRICE       CLOUDY    40  40 100 NE12      29.61F FOG     WCI  33
FALLS CITY     CLOUDY    48  46  93 N6        29.59F
NEBRASKA CITY  FOG       40  40 100 N10       29.63F VSB 1/4 WCI  33
PLATTSMOUTH    LGT RAIN  38  38 100 N12       29.65S WCI  31
$$

NEZ044-045-051>053-067-220400-
OMAHA AREA

CITY           SKY/WX    TMP DP  RH WIND       PRES   REMARKS
OMAHA EPPLEY   LGT RAIN  38  36  92 N9        29.68F FOG     WCI  31
BLAIR          DRZL/FOG  37  37  98 NE15      29.66S VSB 3/4 WCI  28
FREMONT        CLOUDY    37  37  99 NE9G18    29.70R FOG     WCI  30
MILLARD        DRIZZLE   39  37  94 N3        29.68R
OFFUTT AFB     LGT RAIN  37  37 100 NE14      29.65S WCI  29
PLATTSMOUTH    LGT RAIN  38  38 100 N12       29.65S WCI  31
WAHOO          LGT RAIN  37  36  95 N12G21    29.68R WCI  30
$$




USA.gov is the U.S. government's official web portal to all federal, state and local government web resources and services.